| time (UTC) | temp F | wind direction | speed knots | gust knots | rain 1hr in | rain 24hr in | rain mn in | humidity % | barometer mb |
| 20260508013007 | 50 | 178 | 0.0 | 2.6 | 0.00 | 1.09 | 1.09 | 95 | 1002.3 |
| 20260508011510 | 49 | 172 | 0.0 | 0.9 | 0.00 | 1.09 | 1.09 | 95 | 1002.3 |
| 20260508010009 | 49 | 170 | 0.0 | 1.7 | 0.00 | 1.09 | 1.09 | 95 | 1002.3 |
| 20260508004508 | 49 | 168 | 0.0 | 1.7 | 0.00 | 1.09 | 1.09 | 95 | 1002.4 |
| 20260508003006 | 48 | 159 | 0.9 | 2.6 | 0.00 | 1.09 | 1.09 | 95 | 1002.7 |
| 20260508001505 | 48 | 244 | 0.9 | 5.2 | 0.00 | 1.09 | 1.09 | 95 | 1002.6 |
| 20260508000008 | 48 | 189 | 1.7 | 7.0 | 0.00 | 1.09 | 1.09 | 94 | 1002.7 |
| 20260507234515 | 48 | 165 | 3.5 | 10.4 | 0.00 | 1.09 | 1.09 | 94 | 1002.7 |
| 20260507233004 | 48 | 168 | 0.0 | 6.1 | 0.00 | 1.09 | 1.09 | 94 | 1002.5 |
| 20260507231503 | 48 | 193 | 1.7 | 10.4 | 0.00 | 1.09 | 1.09 | 94 | 1002.6 |
| 20260507230004 | 49 | 139 | 6.1 | 10.4 | 0.00 | 1.09 | 1.09 | 94 | 1002.6 |
| 20260507224506 | 50 | 187 | 5.2 | 9.6 | 0.00 | 1.09 | 1.09 | 94 | 1002.5 |
| 20260507223002 | 50 | 215 | 4.3 | 12.2 | 0.00 | 1.09 | 1.09 | 94 | 1002.3 |
| 20260507221501 | 50 | 164 | 7.8 | 13.9 | 0.01 | 1.09 | 1.09 | 94 | 1002.3 |
| 20260507220100 | 50 | 157 | 7.8 | 13.0 | 0.01 | 1.09 | 1.09 | 94 | 1002.5 |
| 20260507214601 | 50 | 169 | 7.0 | 17.4 | 0.01 | 1.09 | 1.09 | 94 | 1002.5 |
| 20260507213107 | 50 | 141 | 7.8 | 14.8 | 0.02 | 1.09 | 1.09 | 94 | 1002.3 |
| 20260507211558 | 50 | 186 | 10.4 | 17.4 | 0.03 | 1.09 | 1.09 | 94 | 1002.3 |
| 20260507210058 | 49 | 169 | 7.8 | 14.8 | 0.07 | 1.09 | 1.09 | 94 | 1001.5 |
| 20260507204559 | 49 | 136 | 8.7 | 13.0 | 0.12 | 1.09 | 1.09 | 94 | 1002.4 |
| 20260507203100 | 49 | 157 | 7.8 | 12.2 | 0.19 | 1.08 | 1.08 | 94 | 1003.0 |
| 20260507201551 | 48 | 158 | 5.2 | 11.3 | 0.28 | 1.06 | 1.06 | 94 | 1003.6 |
| 20260507200052 | 48 | 146 | 7.0 | 12.2 | 0.36 | 1.02 | 1.02 | 94 | 1003.7 |
| 20260507194547 | 48 | 132 | 7.0 | 12.2 | 0.43 | 0.97 | 0.97 | 94 | 1003.9 |
| 20260507193050 | 47 | 161 | 7.0 | 13.0 | 0.47 | 0.89 | 0.89 | 93 | 1004.6 |
| 20260507191543 | 47 | 197 | 7.0 | 16.5 | 0.49 | 0.76 | 0.76 | 93 | 1005.4 |
| 20260507190039 | 50 | 219 | 7.0 | 18.2 | 0.46 | 0.65 | 0.65 | 93 | 1005.3 |
| 20260507184539 | 52 | 228 | 7.0 | 14.8 | 0.37 | 0.54 | 0.54 | 93 | 1005.0 |
| 20260507183042 | 52 | 160 | 7.8 | 15.6 | 0.27 | 0.42 | 0.42 | 93 | 1005.0 |
| 20260507181536 | 52 | 180 | 6.1 | 17.4 | 0.12 | 0.27 | 0.27 | 93 | 1005.8 |
| 20260507180041 | 52 | 153 | 9.6 | 15.6 | 0.04 | 0.19 | 0.19 | 93 | 1004.9 |
| 20260507174536 | 52 | 136 | 9.6 | 20.0 | 0.02 | 0.17 | 0.17 | 93 | 1004.6 |
| 20260507173034 | 52 | 142 | 10.4 | 17.4 | 0.00 | 0.15 | 0.15 | 93 | 1005.1 |
| 20260507171531 | 53 | 150 | 10.4 | 17.4 | 0.01 | 0.15 | 0.15 | 93 | 1005.4 |
| 20260507170029 | 53 | 160 | 10.4 | 18.2 | 0.03 | 0.15 | 0.15 | 93 | 1005.4 |
| 20260507164528 | 52 | 204 | 7.0 | 18.2 | 0.03 | 0.15 | 0.15 | 93 | 1006.4 |
| 20260507163025 | 52 | 150 | 8.7 | 20.0 | 0.03 | 0.15 | 0.15 | 93 | 1006.5 |
| 20260507161538 | 52 | 151 | 9.6 | 17.4 | 0.03 | 0.14 | 0.14 | 93 | 1006.9 |
| 20260507160029 | 52 | 126 | 8.7 | 14.8 | 0.01 | 0.12 | 0.12 | 93 | 1007.6 |
| 20260507154520 | 52 | 174 | 10.4 | 18.2 | 0.01 | 0.12 | 0.12 | 93 | 1007.8 |
| 20260507153016 | 52 | 159 | 10.4 | 18.2 | 0.01 | 0.12 | 0.12 | 92 | 1008.4 |
| 20260507151614 | 52 | 147 | 10.4 | 16.5 | 0.00 | 0.11 | 0.11 | 92 | 1008.7 |
| 20260507150015 | 53 | 151 | 10.4 | 20.9 | 0.00 | 0.11 | 0.11 | 92 | 1008.7 |
| 20260507144512 | 53 | 166 | 11.3 | 17.4 | 0.00 | 0.11 | 0.11 | 92 | 1009.0 |
| 20260507143011 | 53 | 144 | 11.3 | 18.2 | 0.00 | 0.11 | 0.11 | 93 | 1009.2 |
| 20260507141508 | 53 | 169 | 11.3 | 18.2 | 0.00 | 0.11 | 0.11 | 93 | 1009.6 |
| 20260507140013 | 53 | 168 | 11.3 | 19.1 | 0.00 | 0.11 | 0.11 | 93 | 1009.9 |
| 20260507134520 | 52 | 188 | 11.3 | 18.2 | 0.00 | 0.11 | 0.11 | 93 | 1010.2 |
| 20260507133009 | 52 | 159 | 11.3 | 21.7 | 0.00 | 0.11 | 0.11 | 93 | 1010.1 |
| 20260507131511 | 52 | 145 | 10.4 | 21.7 | 0.00 | 0.11 | 0.11 | 93 | 1010.4 |
| 20260507130003 | 53 | 159 | 10.4 | 22.6 | 0.00 | 0.11 | 0.11 | 93 | 1010.4 |
| 20260507124502 | 53 | 167 | 12.2 | 23.5 | 0.00 | 0.11 | 0.11 | 94 | 1010.3 |
| 20260507123108 | 53 | 169 | 8.7 | 18.2 | 0.00 | 0.11 | 0.11 | 94 | 1010.8 |
| 20260507121608 | 53 | 153 | 9.6 | 19.1 | 0.01 | 0.11 | 0.11 | 94 | 1010.5 |
| 20260507120057 | 52 | 117 | 11.3 | 17.4 | 0.01 | 0.11 | 0.11 | 94 | 1010.8 |
| 20260507114600 | 52 | 139 | 10.4 | 16.5 | 0.02 | 0.11 | 0.11 | 94 | 1011.2 |
| 20260507113054 | 52 | 172 | 8.7 | 15.6 | 0.03 | 0.11 | 0.11 | 94 | 1011.8 |
| 20260507111554 | 52 | 139 | 8.7 | 19.1 | 0.04 | 0.10 | 0.10 | 94 | 1011.6 |
| 20260507110106 | 52 | 193 | 10.4 | 16.5 | 0.04 | 0.10 | 0.10 | 94 | 1012.0 |
| 20260507104552 | 52 | 184 | 10.4 | 22.6 | 0.03 | 0.09 | 0.09 | 94 | 1011.7 |
| 20260507103054 | 52 | 169 | 10.4 | 18.2 | 0.02 | 0.08 | 0.08 | 94 | 1012.5 |
| 20260507101550 | 52 | 161 | 7.8 | 14.8 | 0.01 | 0.06 | 0.06 | 94 | 1012.3 |
| 20260507100049 | 52 | 184 | 7.8 | 13.9 | 0.01 | 0.06 | 0.06 | 94 | 1012.6 |
| 20260507094553 | 53 | 160 | 2.6 | 12.2 | 0.01 | 0.06 | 0.06 | 94 | 1012.7 |
| 20260507093055 | 53 | 163 | 6.1 | 14.8 | 0.01 | 0.06 | 0.06 | 94 | 1012.5 |
| 20260507091607 | 53 | 173 | 8.7 | 13.9 | 0.00 | 0.06 | 0.06 | 94 | 1012.2 |
| 20260507090047 | 53 | 157 | 5.2 | 11.3 | 0.02 | 0.06 | 0.06 | 94 | 1012.4 |
| 20260507084544 | 54 | 153 | 7.0 | 19.1 | 0.02 | 0.06 | 0.06 | 94 | 1012.8 |
| 20260507083040 | 53 | 189 | 8.7 | 17.4 | 0.05 | 0.06 | 0.06 | 94 | 1012.5 |
| 20260507081538 | 52 | 174 | 8.7 | 18.2 | 0.05 | 0.06 | 0.06 | 94 | 1012.9 |
| 20260507080033 | 51 | 161 | 7.0 | 12.2 | 0.03 | 0.03 | 0.03 | 94 | 1012.8 |
| 20260507074541 | 50 | 145 | 9.6 | 15.6 | 0.03 | 0.03 | 0.03 | 94 | 1012.9 |
| 20260507073028 | 50 | 171 | 8.7 | 16.5 | 0.01 | 0.01 | 0.01 | 94 | 1013.4 |
| 20260507071527 | 49 | 197 | 8.7 | 15.6 | 0.01 | 0.01 | 0.01 | 93 | 1013.5 |
| 20260507070026 | 49 | 177 | 9.6 | 17.4 | 0.00 | 0.00 | 0.00 | 93 | 1013.7 |
| 20260507064523 | 49 | 157 | 9.6 | 15.6 | 0.00 | 0.00 | 0.00 | 93 | 1014.1 |
| 20260507063023 | 49 | 159 | 7.8 | 17.4 | 0.00 | 0.00 | 0.00 | 93 | 1014.3 |
| 20260507061519 | 50 | 142 | 7.8 | 19.1 | 0.00 | 0.00 | 0.00 | 93 | 1014.3 |
| 20260507060016 | 50 | 175 | 7.8 | 14.8 | 0.00 | 0.00 | 0.00 | 93 | 1014.6 |
| 20260507054514 | 50 | 159 | 6.1 | 11.3 | 0.00 | 0.00 | 0.00 | 93 | 1015.0 |
| 20260507053011 | 50 | 170 | 5.2 | 9.6 | 0.00 | 0.00 | 0.00 | 93 | 1015.2 |
| 20260507051506 | 50 | 174 | 2.6 | 9.6 | 0.00 | 0.00 | 0.00 | 93 | 1015.7 |
| 20260507050003 | 49 | 194 | 2.6 | 7.8 | 0.00 | 0.00 | 0.00 | 93 | 1016.1 |
| 20260507044501 | 49 | 160 | 4.3 | 8.7 | 0.00 | 0.00 | 0.00 | 93 | 1016.4 |
| 20260507043101 | 49 | 175 | 3.5 | 8.7 | 0.00 | 0.00 | 0.00 | 93 | 1016.7 |
| 20260507041556 | 49 | 168 | 4.3 | 7.0 | 0.00 | 0.00 | 0.00 | 92 | 1017.0 |
| 20260507040053 | 49 | 168 | 4.3 | 7.8 | 0.00 | 0.00 | 0.00 | 92 | 1017.4 |
| 20260507034558 | 49 | 139 | 4.3 | 9.6 | 0.00 | 0.00 | 0.00 | 92 | 1017.5 |
| 20260507033049 | 49 | 165 | 4.3 | 9.6 | 0.00 | 0.00 | 0.00 | 92 | 1017.7 |
| 20260507031546 | 49 | 219 | 3.5 | 9.6 | 0.00 | 0.00 | 0.00 | 92 | 1018.0 |
| 20260507030043 | 49 | 161 | 3.5 | 9.6 | 0.00 | 0.00 | 0.00 | 92 | 1018.2 |
| 20260507024553 | 49 | 174 | 3.5 | 7.8 | 0.00 | 0.00 | 0.00 | 92 | 1018.4 |
| 20260507023041 | 49 | 170 | 5.2 | 10.4 | 0.00 | 0.00 | 0.00 | 91 | 1018.6 |
| 20260507021547 | 50 | 161 | 3.5 | 7.8 | 0.00 | 0.00 | 0.00 | 91 | 1018.7 |
| 20260507020046 | 50 | 202 | 2.6 | 10.4 | 0.00 | 0.00 | 0.00 | 91 | 1018.9 |
| 20260507014543 | 50 | 136 | 4.3 | 7.8 | 0.00 | 0.00 | 0.00 | 91 | 1018.8 |